User: anonymous   Login
Location: Chinna Viriv?da
(16.5281°N, 81.0493°E)
Time: 07:28:13
(UTC+00:00)
Language:

Palapa B4 Rocket - Orbit

View from above orbital plane
View from above orbital plane
View from above satellite
View from above satellite

Ground track
Ground track

The orbit is defined by the following mean orbital elements,

1 21965U          26161.50430913 +.00000000 +00000-0 +11621-3 0 00001
2 21965  19.6748 212.7879 1357128 145.8971 223.6529 12.22506602    03
Epoch (UTC): 10 June 2026 12:06:12
Eccentricity: 0.1357128
inclination: 19.6748°
perigee height: 501 km
apogee height: 2662 km
right ascension of ascending node: 212.7879°
argument of perigee: 145.8971°
revolutions per day: 12.22506602
mean anomaly at epoch: 223.6529°

The dashed part of the orbit path shows where the satellite is in the earth's shadow,  

DLR